Flag for Canada Weather past 2 weeks in Thompson, Manitoba, Canada

Now
-6 °F

Clear.


Feels Like: -6 °F
Forecast: -3 / 31 °F
Wind: 2 mph from West

Location: Thompson


UV Index: 3 (Moderate)

Visibility: 15 mi


Pressure: 30.45 "Hg

Humidity: 64%

Dew point: -15 °F

Location of ThompsonLocation

Historic Weather in Thompson

°F

Thompson temperature yesterday

Maximum temperature yesterday: 25 °F (at 5:00 PM)
Minimum temperature yesterday: -9 °F (at 7:00 AM)
Average temperature yesterday: 9 °F

Past Weeks' High & Low Weather Summary

 TemperatureHumidityPressure
High41 °F (Apr 9, 5:00 PM)100% (Apr 3, 9:00 PM)30.50 "Hg (Apr 3, 9:00 PM)
Low-18 °F (Apr 14, 5:00 AM)25% (Apr 2, 11:00 AM)29.08 "Hg (Apr 9, 5:00 PM)
Average12 °F67%30.04 "Hg
* Reported Apr 2 4:00 AM — Apr 17 4:00 AM, Thompson, Weather by CustomWeather, © 2014

Note: Actual official high and low records may vary slightly from our data, if they occured in-between our weather recording intervals... More about our weather records

Advertising

Historic Weather Conditions — Data for Previous 24 hours

 ConditionsComfort  
Time TempWeatherWind HumidityBarometerVisibility
4:00 AM
Apr 17
-6 °FClear.2 mph64%30.45 "Hg15 mi
3:00 AM-2 °FClear.3 mph84%30.45 "Hg15 mi
2:00 AM-2 °FClear.No wind92%30.45 "Hg15 mi
1:00 AM3 °FClear.3 mph72%30.46 "Hg15 mi
12:00 AM5 °FClear.No wind78%30.46 "Hg15 mi
11:00 PM
Apr 16
7 °FClear.3 mph78%30.46 "Hg15 mi
10:00 PM10 °FClear.2 mph72%30.46 "Hg15 mi
9:00 PM19 °FSunny.5 mph53%30.46 "Hg15 mi
8:00 PM23 °FSunny.7 mph50%30.46 "Hg15 mi
7:00 PM25 °FSunny.7 mph50%30.46 "Hg15 mi
6:00 PM25 °FSunny.8 mph46%30.45 "Hg15 mi
5:00 PM25 °FSunny.9 mph46%30.46 "Hg15 mi
4:00 PM23 °FSunny.10 mph50%30.47 "Hg15 mi
3:00 PM21 °FSunny.7 mph54%30.48 "Hg15 mi
2:00 PM19 °FPassing clouds.6 mph53%30.49 "Hg15 mi
1:00 PM18 °FPassing clouds.9 mph49%30.49 "Hg15 mi
12:00 PM14 °FPassing clouds.8 mph52%30.50 "Hg15 mi
11:00 AM10 °FPassing clouds.9 mph56%30.50 "Hg15 mi
10:00 AM7 °FPassing clouds.8 mph61%30.49 "Hg15 mi
9:00 AM3 °FPassing clouds.6 mph66%30.49 "Hg15 mi
8:00 AM-4 °FPassing clouds.7 mph77%30.48 "Hg15 mi
7:00 AM-9 °FPassing clouds.6 mph70%30.47 "Hg15 mi
6:00 AM-8 °FPassing clouds.6 mph84%30.44 "Hg15 mi
5:00 AM-6 °FClear.8 mph77%30.42 "Hg15 mi
4:00 AM-2 °FClear.5 mph71%30.41 "Hg15 mi
Weather by CustomWeather, © 2014

See weather overview